[[{"header":{"parameterUnit":"m.s-1","parameterCategory":1,"la1":30.2991,"la2":30.254,"lo1":-89.0895,"lo2":-89.0444,"dy":0.0017,"dx":0.0017,"nx":28,"ny":28,"refTime":"2023-08-05T09:00:00:Z","depth":0,"parameterNumber":2,"parameterNumberName":"U-component_of_WINDS"},"data":[0,0,0,0,0,0,0,0,0,0,0,0,0,0,0,0,0,0,0,0,0,0,0,0,0,0,0,0,0,0,0,0,0,0,0,0,0,0,0,0,0,0,0,0,0,0,0,0,0,0,0,0,0,0,0,0,0,0,4.3505,4.3506,0,4.3594,4.3595,4.3596,4.3577,4.3575,4.3573,4.3572,4.3664,4.3668,4.3672,0,0,0,0,0,0,0,0,0,0,0,0,0,4.3323,4.3326,4.3505,4.3506,4.3507,4.3593,4.3595,4.3596,4.3577,4.3575,4.3573,4.3571,4.3662,4.3667,4.3672,0,0,0,0,0,0,0,0,0,0,0,0,0,4.3406,4.3327,4.3505,4.3508,4.3509,4.3593,4.3595,4.3596,4.3577,4.3575,4.3572,4.357,4.3661,4.3667,4.3673,4.3759,0,0,4.3691,4.3693,0,0,0,0,0,0,0,0,4.3401,4.3413,4.3507,4.3508,4.351,4.3571,4.3564,4.3651,4.3578,4.3552,4.3572,4.3569,4.3635,4.3643,4.3665,4.3763,4.3767,4.3691,4.3695,4.3698,4.3699,0,0,0,0,0,0,0,4.3395,4.3409,4.354,4.3508,4.351,4.3506,4.3515,4.358,4.3606,4.3554,4.3552,4.3563,4.3635,4.3659,4.3667,4.3769,4.3691,4.3697,4.37,4.3703,4.3945,4.3948,0,0,0,0,0,0,4.3388,4.3404,4.3537,4.3543,4.3448,4.3512,4.3522,4.3554,4.3605,4.3611,4.3565,4.3562,4.365,4.366,4.367,4.3777,4.3698,4.3703,4.3707,4.3943,4.3946,4.3949,0,0,0,0,0,0,4.3384,4.34,4.3534,4.3473,4.349,4.3517,4.3554,4.3557,4.3581,4.3614,4.3619,4.3585,4.3649,4.3662,4.3738,4.378,4.3706,4.3711,4.3939,4.3944,4.3948,4.3989,0,0,0,0,0,0,4.3379,4.3399,4.3431,4.3474,4.3493,4.3599,4.3556,4.3561,4.3591,4.3588,4.3634,4.3639,4.3648,4.3729,4.3744,4.3787,4.3716,4.3936,4.3941,4.3946,4.3984,4.3995,4.4003,0,0,0,0,0,4.3373,4.3439,4.3433,4.3449,4.3534,4.3601,4.3612,4.3621,4.3595,4.3628,4.365,4.3637,4.3773,4.3737,4.3753,4.3799,4.3933,4.394,4.3946,4.398,4.3993,4.4003,0,0,0,0,0,0,4.34,4.3444,4.3438,4.352,4.3557,4.3598,4.364,4.3633,4.3679,4.3674,4.3683,4.3693,4.3771,4.3792,4.3752,4.3887,4.3849,4.3859,4.387,4.3882,4.3891,4.3885,4.3721,0,0,0,0,0,4.3415,4.3466,4.3502,4.3571,4.359,4.3612,4.3641,4.3645,4.3684,4.3699,4.3726,4.3765,4.3817,4.385,4.3899,4.3988,4.3999,4.4027,4.4037,4.4044,4.4053,4.4104,4.4118,4.397,4.397,4.397,0,0,4.3448,4.3479,4.351,4.3577,4.3606,4.366,4.3625,4.3682,4.3722,4.3708,4.3782,4.3803,4.3847,4.393,4.3968,4.3951,4.4096,4.4052,4.4058,4.4063,4.4112,4.4126,4.4138,4.3975,4.3974,4.3973,0,0,4.3535,4.3562,4.3624,4.3654,4.3699,4.3713,4.3728,4.3771,4.3785,4.3859,4.385,4.3899,4.3986,4.4019,4.4047,4.4149,4.414,4.4165,4.4215,4.4264,4.4276,4.4286,4.4324,4.4338,4.4173,4.4174,4.4174,0,4.357,4.3649,4.3656,4.3715,4.3746,4.3737,4.38,4.3829,4.3888,4.391,4.3889,4.4001,4.403,4.4122,4.4147,4.4169,4.4188,4.416,4.4273,4.4284,4.4293,4.433,4.4344,4.4176,4.4176,4.4176,4.4175,0,4.3691,4.3746,4.379,4.3848,4.3884,4.3944,4.3963,4.3999,4.4,4.4017,4.4094,4.4129,4.4186,4.4208,4.4209,4.4301,4.4289,4.4271,4.4233,4.431,4.4345,4.4359,4.418,4.4179,4.4179,4.4178,0,0,4.3796,4.3859,4.3875,4.3902,4.3952,4.3995,4.4056,4.4112,4.4144,4.4185,4.4238,4.4314,4.4298,4.433,4.4335,4.4379,4.446,4.4356,4.4357,4.4375,4.4566,4.458,4.4596,4.4455,4.4457,4.446,4.4563,0,4.3889,4.3996,4.4006,4.4104,4.4156,4.4149,4.4203,4.424,4.4258,4.4306,4.4327,4.4381,4.4355,4.4375,4.4418,4.4441,4.4499,4.4434,4.4506,4.4508,4.4496,4.4614,4.4629,4.4724,4.4576,4.4579,4.458,0,4.4011,4.4057,4.4159,4.4204,4.4226,4.4274,4.4328,4.4373,4.4416,4.4427,4.4464,4.4464,4.4529,4.4489,4.458,4.4536,4.4566,4.4583,4.4587,4.4594,4.4549,4.4626,4.4755,4.477,4.4601,4.46,4.4598,0,4.408,4.4167,4.424,4.4263,4.4317,4.4351,4.4375,4.4416,4.445,4.4497,4.4519,4.4573,4.4603,4.4645,4.4661,4.463,4.4752,4.4713,4.4764,4.4764,4.4791,4.4789,4.4927,4.4808,4.4808,4.4808,4.4808,0,4.4183,4.4246,4.4272,4.4317,4.4389,4.4401,4.4472,4.4494,4.4531,4.4581,4.4578,4.4626,4.4643,4.4695,4.4707,4.4782,4.4795,4.4807,4.481,4.4808,4.4807,4.4828,4.4822,4.4812,4.4811,4.481,4.481,0,4.4272,4.4291,4.4371,4.4416,4.4429,4.448,4.4519,4.4563,4.4582,4.4646,4.4662,4.4691,4.4751,4.4771,4.4844,4.4853,4.494,4.4937,4.4926,4.4927,4.4977,4.4973,4.5135,4.5158,4.5023,4.5024,4.5025,0,4.4337,4.4386,4.4436,4.447,4.4495,4.4549,4.4584,4.4598,4.4635,4.4689,4.4728,4.4788,4.4836,4.4933,4.4962,4.5018,4.5017,4.507,4.5025,4.5023,4.502,4.5017,4.5023,4.5078,4.508,4.5081,4.5082,0,4.4451,4.4458,4.4508,4.4563,4.4605,4.4648,4.469,4.4718,4.4739,4.4781,4.4842,4.488,4.4955,4.5015,4.5073,4.51,4.5095,4.5096,4.5111,4.511,4.5102,4.5109,4.495,4.5092,4.5091,4.509,4.509,4.5089,4.4531,4.4575,4.4618,4.4674,4.4708,4.4748,4.4792,4.4817,4.4868,4.4931,4.4936,4.5003,4.5048,4.5125,4.5154,4.5208,4.5193,4.5215,4.522,4.5226,4.5231,4.5093,4.5219,4.5218,4.5218,4.5218,4.5218,0,4.4646,4.4674,4.4726,4.4785,4.483,4.4822,4.4869,4.4907,4.4966,4.5008,4.5056,4.5129,4.5187,4.5221,4.5281,4.5318,4.5317,4.5333,4.5331,4.5337,4.524,4.5221,4.5332,4.5332,4.5332,4.5332,4.5332,4.5332,4.4711,4.4786,4.4799,4.4892,4.4919,4.4985,4.5013,4.505,4.5084,4.5164,4.5213,4.5235,4.5274,4.5337,4.5391,4.54,4.5423,4.544,4.5447,4.5356,4.5344,4.5333,4.5316,4.5445,4.5445,4.5541,4.5542,4.5542]},{"header":{"parameterUnit":"m.s-1","parameterCategory":1,"la1":30.2991,"la2":30.254,"lo1":-89.0895,"lo2":-89.0444,"dy":0.0017,"dx":0.0017,"nx":28,"ny":28,"refTime":"2023-08-05T09:00:00:Z","depth":0,"parameterNumber":3,"parameterNumberName":"V-component_of_WINDS"},"data":[0,0,0,0,0,0,0,0,0,0,0,0,0,0,0,0,0,0,0,0,0,0,0,0,0,0,0,0,0,0,0,0,0,0,0,0,0,0,0,0,0,0,0,0,0,0,0,0,0,0,0,0,0,0,0,0,0,0,-1.019,-1.0191,0,-1.0222,-1.0223,-1.0223,-1.0236,-1.0236,-1.0235,-1.0235,-1.0268,-1.0269,-1.027,0,0,0,0,0,0,0,0,0,0,0,0,0,-1.014,-1.0141,-1.019,-1.0191,-1.0191,-1.0222,-1.0223,-1.0223,-1.0236,-1.0236,-1.0235,-1.0235,-1.0268,-1.0269,-1.027,0,0,0,0,0,0,0,0,0,0,0,0,0,-1.0166,-1.0142,-1.019,-1.0201,-1.0202,-1.0222,-1.0223,-1.0223,-1.0236,-1.0236,-1.0235,-1.0235,-1.0267,-1.0269,-1.027,-1.0282,0,0,-1.0275,-1.0275,0,0,0,0,0,0,0,0,-1.0165,-1.0168,-1.0199,-1.02,-1.0202,-1.0225,-1.0217,-1.0243,-1.0236,-1.0223,-1.0235,-1.0235,-1.0254,-1.0256,-1.0263,-1.0283,-1.0285,-1.0275,-1.0276,-1.0276,-1.0277,0,0,0,0,0,0,0,-1.0163,-1.0167,-1.0203,-1.0199,-1.0201,-1.0205,-1.0208,-1.0222,-1.0239,-1.0224,-1.0225,-1.0229,-1.0255,-1.0261,-1.0264,-1.0285,-1.0275,-1.0276,-1.0277,-1.0277,-1.0319,-1.0319,0,0,0,0,0,0,-1.0159,-1.0165,-1.0202,-1.0204,-1.0183,-1.0206,-1.021,-1.0218,-1.0239,-1.0242,-1.0229,-1.0229,-1.0259,-1.0262,-1.0265,-1.0281,-1.0276,-1.0278,-1.0278,-1.0319,-1.0319,-1.0319,0,0,0,0,0,0,-1.0158,-1.0162,-1.0201,-1.0185,-1.019,-1.0207,-1.0216,-1.0218,-1.0225,-1.0242,-1.0245,-1.0233,-1.0259,-1.0263,-1.0278,-1.0282,-1.0278,-1.028,-1.0318,-1.0319,-1.0319,-1.0312,0,0,0,0,0,0,-1.0157,-1.0162,-1.0166,-1.0185,-1.0191,-1.0213,-1.0216,-1.0219,-1.0227,-1.0228,-1.0247,-1.0249,-1.0259,-1.0276,-1.0279,-1.0284,-1.0281,-1.0318,-1.0318,-1.0319,-1.0312,-1.0312,-1.0312,0,0,0,0,0,-1.0155,-1.0163,-1.0166,-1.0171,-1.0196,-1.0213,-1.0216,-1.0227,-1.0228,-1.0232,-1.0244,-1.0249,-1.0281,-1.0277,-1.0281,-1.0286,-1.0318,-1.0318,-1.0319,-1.0312,-1.0312,-1.0312,0,0,0,0,0,0,-1.0143,-1.0165,-1.017,-1.0183,-1.0196,-1.0215,-1.0221,-1.0227,-1.024,-1.024,-1.0253,-1.0257,-1.0272,-1.0281,-1.0276,-1.03,-1.03,-1.0301,-1.0293,-1.0294,-1.0294,-1.0291,-1.0282,0,0,0,0,0,-1.0143,-1.0154,-1.0173,-1.0183,-1.0189,-1.0204,-1.0212,-1.0219,-1.0233,-1.0239,-1.0251,-1.0264,-1.0278,-1.0286,-1.0299,-1.0314,-1.0318,-1.0319,-1.0319,-1.0319,-1.0321,-1.033,-1.0331,-1.0321,-1.0321,-1.0321,0,0,-1.0141,-1.0154,-1.016,-1.0181,-1.0192,-1.0204,-1.0209,-1.0221,-1.023,-1.024,-1.0256,-1.0266,-1.0281,-1.0297,-1.0304,-1.0304,-1.0325,-1.032,-1.032,-1.0321,-1.0331,-1.0332,-1.0333,-1.0321,-1.0321,-1.0321,0,0,-1.0144,-1.0155,-1.0165,-1.0176,-1.0193,-1.0203,-1.0206,-1.0224,-1.0231,-1.0247,-1.0255,-1.0267,-1.0289,-1.03,-1.0309,-1.0318,-1.0324,-1.0322,-1.0323,-1.0332,-1.0333,-1.0334,-1.0338,-1.034,-1.0323,-1.0323,-1.0323,0,-1.0139,-1.0158,-1.017,-1.0182,-1.0192,-1.0202,-1.0213,-1.0224,-1.0244,-1.025,-1.0251,-1.028,-1.0291,-1.031,-1.0312,-1.0319,-1.0323,-1.032,-1.0332,-1.0333,-1.0334,-1.0338,-1.034,-1.0323,-1.0323,-1.0323,-1.0323,0,-1.0152,-1.0165,-1.0172,-1.0191,-1.0202,-1.0213,-1.0228,-1.0236,-1.0244,-1.0254,-1.0271,-1.0285,-1.0302,-1.0307,-1.0313,-1.0327,-1.0327,-1.0329,-1.033,-1.0334,-1.0339,-1.034,-1.0323,-1.0323,-1.0323,-1.0323,0,0,-1.0148,-1.0175,-1.0178,-1.0187,-1.0207,-1.0218,-1.023,-1.0247,-1.0255,-1.0269,-1.0281,-1.03,-1.0303,-1.0313,-1.0322,-1.033,-1.0338,-1.0332,-1.0332,-1.0333,-1.0355,-1.0353,-1.0355,-1.0342,-1.0342,-1.0342,-1.0354,0,-1.0154,-1.0177,-1.0189,-1.0208,-1.022,-1.0231,-1.0243,-1.0256,-1.0267,-1.0279,-1.0291,-1.0305,-1.0307,-1.0314,-1.0322,-1.0335,-1.0342,-1.0334,-1.0353,-1.0354,-1.0349,-1.0357,-1.0354,-1.0364,-1.0355,-1.0356,-1.0356,0,-1.0164,-1.0179,-1.0198,-1.0218,-1.0224,-1.0234,-1.0251,-1.0263,-1.0279,-1.0286,-1.0298,-1.0307,-1.0322,-1.0321,-1.0343,-1.0337,-1.0345,-1.0353,-1.0354,-1.0356,-1.0355,-1.036,-1.0368,-1.0369,-1.0358,-1.0358,-1.0358,0,-1.016,-1.0184,-1.02,-1.0208,-1.0231,-1.0238,-1.0248,-1.0264,-1.0274,-1.029,-1.0296,-1.0313,-1.0322,-1.0335,-1.0348,-1.0347,-1.0369,-1.0369,-1.0376,-1.0375,-1.038,-1.0379,-1.039,-1.0384,-1.0384,-1.0384,-1.0384,0,-1.0166,-1.0177,-1.0198,-1.0208,-1.0222,-1.0236,-1.025,-1.0261,-1.0275,-1.0288,-1.0298,-1.031,-1.0326,-1.034,-1.035,-1.0367,-1.0371,-1.0378,-1.038,-1.0377,-1.0376,-1.0383,-1.0383,-1.0385,-1.0385,-1.0385,-1.0385,0,-1.0163,-1.0177,-1.0195,-1.0216,-1.0222,-1.0232,-1.025,-1.026,-1.0272,-1.0287,-1.0292,-1.031,-1.0327,-1.0341,-1.0363,-1.037,-1.0388,-1.0391,-1.0382,-1.0384,-1.039,-1.0389,-1.0405,-1.0409,-1.0401,-1.0401,-1.0401,0,-1.0166,-1.0175,-1.0198,-1.0207,-1.0217,-1.0232,-1.0242,-1.0257,-1.0268,-1.0288,-1.0296,-1.0314,-1.0329,-1.0356,-1.0371,-1.0388,-1.0392,-1.0397,-1.0395,-1.0392,-1.0393,-1.0393,-1.0394,-1.0397,-1.0397,-1.0397,-1.0397,0,-1.017,-1.0177,-1.0191,-1.0209,-1.0221,-1.0236,-1.0251,-1.0258,-1.0276,-1.0287,-1.0305,-1.0317,-1.034,-1.0358,-1.0377,-1.0388,-1.0396,-1.0397,-1.04,-1.0397,-1.0392,-1.0395,-1.0383,-1.0397,-1.0397,-1.0397,-1.0397,-1.0397,-1.017,-1.018,-1.0198,-1.0214,-1.0227,-1.0241,-1.0252,-1.0266,-1.0281,-1.0301,-1.0309,-1.0327,-1.0345,-1.0372,-1.0384,-1.0399,-1.04,-1.0403,-1.0404,-1.0405,-1.0405,-1.0389,-1.0402,-1.0402,-1.0402,-1.0402,-1.0402,0,-1.0175,-1.0188,-1.0203,-1.0224,-1.0237,-1.0243,-1.0261,-1.0271,-1.0288,-1.0304,-1.0319,-1.034,-1.0358,-1.0375,-1.0394,-1.0403,-1.0407,-1.0408,-1.0407,-1.041,-1.0402,-1.0399,-1.0404,-1.0404,-1.0404,-1.0404,-1.0404,-1.0404,-1.0179,-1.0196,-1.0206,-1.023,-1.0242,-1.026,-1.027,-1.0283,-1.0297,-1.032,-1.0335,-1.0346,-1.0363,-1.0384,-1.0401,-1.0406,-1.0413,-1.0413,-1.0418,-1.0411,-1.041,-1.041,-1.0407,-1.0414,-1.0414,-1.0425,-1.0425,-1.0425]}]]